[[{"header":{"parameterUnit":"m.s-1","parameterCategory":1,"la1":30.2991,"la2":30.254,"lo1":-89.0895,"lo2":-89.0444,"dy":0.0017,"dx":0.0017,"nx":28,"ny":28,"refTime":"2024-10-12T21:00:00:Z","depth":0,"parameterNumber":2,"parameterNumberName":"U-component_of_WINDS"},"data":[0,0,0,0,0,0,0,0,0,0,0,0,0,0,0,0,0,0,0,0,0,0,0,0,0,0,0,0,0,0,0,0,0,0,0,0,0,0,0,0,0,0,0,0,0,0,0,0,0,0,0,0,0,0,0,0,0,0,2.0736,2.0738,0,2.0917,2.0919,2.0921,2.0978,2.0977,2.0976,2.0975,2.1159,2.1165,2.117,0,0,0,0,0,0,0,0,0,0,0,0,0,2.0438,2.0443,2.0736,2.0738,2.074,2.0916,2.0919,2.0921,2.0978,2.0977,2.0976,2.0975,2.1157,2.1164,2.1171,0,0,0,0,0,0,0,0,0,0,0,0,0,2.0588,2.0445,2.0735,2.079,2.0796,2.0916,2.0919,2.0922,2.0978,2.0977,2.0975,2.0974,2.1155,2.1163,2.1172,2.125,0,0,2.1198,2.1201,0,0,0,0,0,0,0,0,2.0579,2.0599,2.0779,2.0786,2.0794,2.0923,2.0881,2.1032,2.0978,2.0909,2.0975,2.0974,2.1082,2.1096,2.1133,2.1258,2.1266,2.1199,2.1204,2.1207,2.121,0,0,0,0,0,0,0,2.0569,2.0591,2.0807,2.0782,2.0791,2.0805,2.0825,2.091,2.1,2.0915,2.0919,2.094,2.1085,2.1124,2.1137,2.1269,2.1198,2.1206,2.1211,2.1214,2.1468,2.1469,0,0,0,0,0,0,2.055,2.0582,2.0801,2.0813,2.0681,2.0811,2.0833,2.0883,2.0999,2.1016,2.0941,2.0942,2.111,2.1127,2.1144,2.1243,2.1207,2.1215,2.122,2.1466,2.1468,2.147,0,0,0,0,0,0,2.0543,2.0569,2.0794,2.0699,2.0729,2.0818,2.0873,2.0887,2.0926,2.1019,2.1035,2.0964,2.111,2.1132,2.1223,2.125,2.1219,2.1227,2.1464,2.1467,2.1469,2.1441,0,0,0,0,0,0,2.0534,2.0566,2.0596,2.0699,2.0734,2.087,2.0875,2.0892,2.0941,2.0944,2.1045,2.1061,2.1111,2.121,2.1232,2.1261,2.1234,2.1462,2.1465,2.1468,2.1439,2.1442,2.1444,0,0,0,0,0,2.0523,2.0581,2.0598,2.0624,2.0774,2.0872,2.0891,2.0948,2.0943,2.0974,2.1034,2.1058,2.1244,2.1219,2.1244,2.1276,2.1461,2.1464,2.1468,2.1439,2.1441,2.1444,0,0,0,0,0,0,2.0478,2.0595,2.0615,2.0708,2.0779,2.0881,2.0922,2.0949,2.1023,2.1022,2.1089,2.1112,2.1197,2.1246,2.1216,2.1358,2.1353,2.1362,2.1322,2.1326,2.1328,2.1314,2.1241,0,0,0,0,0,2.0479,2.055,2.0648,2.072,2.0755,2.0832,2.0877,2.0915,2.0991,2.1021,2.1088,2.1161,2.1236,2.1284,2.1358,2.1447,2.147,2.1482,2.1484,2.1485,2.1492,2.1542,2.1548,2.1482,2.1482,2.1482,0,0,2.0482,2.0555,2.0595,2.0713,2.0773,2.0843,2.0857,2.0932,2.0984,2.1033,2.1122,2.1174,2.126,2.135,2.1393,2.1394,2.1515,2.149,2.149,2.1496,2.1546,2.1553,2.1558,2.1484,2.1484,2.1483,0,0,2.0522,2.0585,2.0652,2.0711,2.0802,2.0853,2.0869,2.0968,2.1003,2.1095,2.1133,2.1197,2.1325,2.1384,2.1431,2.1495,2.1519,2.1518,2.1528,2.1576,2.1581,2.1586,2.1608,2.1615,2.1524,2.1524,2.1524,0,2.0513,2.0622,2.0682,2.0755,2.0806,2.0854,2.0921,2.0977,2.1086,2.112,2.1119,2.1281,2.1342,2.1447,2.1463,2.15,2.1519,2.1506,2.1576,2.1582,2.1587,2.1609,2.1617,2.1523,2.1523,2.1523,2.1523,0,2.0606,2.0681,2.0724,2.0829,2.0885,2.0955,2.1026,2.1075,2.1108,2.1159,2.1252,2.1327,2.1417,2.1446,2.1478,2.1555,2.1552,2.1563,2.1559,2.1591,2.1613,2.1622,2.1522,2.1522,2.1522,2.1523,0,0,2.0622,2.0761,2.0775,2.0824,2.0928,2.0987,2.1059,2.1147,2.1188,2.1263,2.1324,2.1432,2.1442,2.1496,2.1536,2.1579,2.1623,2.1584,2.1587,2.1588,2.1712,2.1702,2.1711,2.1641,2.1643,2.1644,2.1704,0,2.0674,2.0805,2.0862,2.0967,2.1036,2.1083,2.1146,2.1217,2.1267,2.1333,2.1388,2.1463,2.1472,2.1504,2.1549,2.1608,2.1649,2.1605,2.1698,2.1701,2.1673,2.1722,2.1713,2.1765,2.1713,2.1715,2.1716,0,2.0753,2.0828,2.094,2.1036,2.1067,2.1123,2.1209,2.1271,2.1352,2.1386,2.1446,2.1484,2.1561,2.1554,2.1661,2.1629,2.1671,2.1706,2.171,2.1719,2.1709,2.1732,2.1784,2.1791,2.173,2.1729,2.1728,0,2.0752,2.0881,2.0965,2.1005,2.1119,2.1157,2.1206,2.1286,2.1336,2.1411,2.1444,2.1527,2.1572,2.1636,2.1695,2.1685,2.1797,2.1794,2.1826,2.1824,2.1846,2.1843,2.1903,2.1875,2.1875,2.1874,2.1874,0,2.0804,2.087,2.0966,2.1017,2.1092,2.1157,2.123,2.1283,2.1354,2.1416,2.1462,2.1519,2.1595,2.1662,2.1709,2.179,2.1811,2.1839,2.1851,2.1835,2.1831,2.1862,2.1859,2.1877,2.1876,2.1876,2.1875,0,2.0814,2.0881,2.0975,2.1076,2.1103,2.1154,2.124,2.1292,2.1345,2.1422,2.1444,2.1527,2.1608,2.1675,2.1781,2.1813,2.1897,2.1911,2.1869,2.1875,2.1902,2.1898,2.1983,2.1998,2.196,2.196,2.196,0,2.0842,2.0894,2.1001,2.1046,2.1095,2.1167,2.1218,2.1285,2.1336,2.1433,2.1472,2.1557,2.1628,2.1755,2.1824,2.1906,2.1921,2.1946,2.1934,2.1915,2.192,2.1916,2.1921,2.1946,2.1946,2.1946,2.1946,0,2.0884,2.0915,2.0987,2.1072,2.1132,2.1201,2.1271,2.1306,2.1385,2.144,2.1524,2.1579,2.1688,2.1771,2.186,2.1911,2.1941,2.195,2.1961,2.1944,2.1917,2.1931,2.1871,2.1947,2.1947,2.1947,2.1947,2.1947,2.0904,2.0952,2.1035,2.1114,2.1174,2.1239,2.1292,2.1352,2.1423,2.1517,2.1552,2.1638,2.1718,2.1841,2.1892,2.196,2.1963,2.1979,2.1984,2.1986,2.1984,2.1908,2.1976,2.1976,2.1976,2.1976,2.1976,0,2.0947,2.1003,2.1076,2.1173,2.1235,2.126,2.1339,2.1389,2.1464,2.1537,2.1606,2.1702,2.1783,2.1859,2.1944,2.1983,2.2,2.2003,2.2,2.2011,2.1976,2.1957,2.1989,2.1989,2.1989,2.1989,2.1989,2.1989,2.0977,2.106,2.1101,2.1214,2.127,2.1355,2.1398,2.1458,2.1516,2.1621,2.1689,2.1738,2.1812,2.1903,2.1978,2.1999,2.2027,2.2027,2.2051,2.2016,2.2014,2.2012,2.1994,2.2033,2.2033,2.208,2.208,2.2081]},{"header":{"parameterUnit":"m.s-1","parameterCategory":1,"la1":30.2991,"la2":30.254,"lo1":-89.0895,"lo2":-89.0444,"dy":0.0017,"dx":0.0017,"nx":28,"ny":28,"refTime":"2024-10-12T21:00:00:Z","depth":0,"parameterNumber":3,"parameterNumberName":"V-component_of_WINDS"},"data":[0,0,0,0,0,0,0,0,0,0,0,0,0,0,0,0,0,0,0,0,0,0,0,0,0,0,0,0,0,0,0,0,0,0,0,0,0,0,0,0,0,0,0,0,0,0,0,0,0,0,0,0,0,0,0,0,0,0,3.8463,3.8463,0,3.8511,3.8512,3.8512,3.8476,3.8474,3.8473,3.8471,3.8515,3.8517,3.852,0,0,0,0,0,0,0,0,0,0,0,0,0,3.8331,3.8334,3.8463,3.8463,3.8464,3.8511,3.8512,3.8513,3.8476,3.8474,3.8472,3.8471,3.8514,3.8517,3.852,0,0,0,0,0,0,0,0,0,0,0,0,0,3.8385,3.8335,3.8463,3.8452,3.8451,3.8511,3.8512,3.8513,3.8477,3.8474,3.8472,3.847,3.8513,3.8517,3.8521,3.8592,0,0,3.8533,3.8534,0,0,0,0,0,0,0,0,3.8382,3.839,3.8453,3.8453,3.8452,3.8485,3.8482,3.8539,3.8477,3.8467,3.8471,3.8469,3.8507,3.8511,3.8525,3.8594,3.8596,3.8533,3.8536,3.8537,3.8538,0,0,0,0,0,0,0,3.8378,3.8387,3.8482,3.8454,3.8453,3.8442,3.8447,3.8492,3.8499,3.8467,3.8465,3.8472,3.8506,3.8521,3.8526,3.8597,3.8533,3.8537,3.8539,3.854,3.8726,3.8728,0,0,0,0,0,0,3.8377,3.8385,3.848,3.8483,3.8411,3.8446,3.8452,3.8477,3.8499,3.85,3.8474,3.847,3.8516,3.8521,3.8527,3.8612,3.8537,3.8541,3.8543,3.8724,3.8727,3.8729,0,0,0,0,0,0,3.8374,3.8385,3.8478,3.8433,3.8444,3.8451,3.8479,3.8479,3.8495,3.8503,3.8503,3.8489,3.8514,3.8522,3.8577,3.8613,3.8543,3.8546,3.872,3.8724,3.8728,3.8783,0,0,0,0,0,0,3.837,3.8385,3.8414,3.8434,3.8447,3.8529,3.8482,3.8482,3.8502,3.8498,3.8517,3.8518,3.8513,3.8571,3.858,3.8617,3.8549,3.8717,3.8722,3.8727,3.8778,3.8788,3.8797,0,0,0,0,0,3.8366,3.8426,3.8415,3.8427,3.8484,3.8531,3.8538,3.8533,3.8505,3.8533,3.8539,3.8518,3.8607,3.8577,3.8587,3.8626,3.8715,3.8721,3.8726,3.8773,3.8786,3.8796,0,0,0,0,0,0,3.8407,3.8428,3.8417,3.8486,3.8507,3.8525,3.856,3.8546,3.8574,3.8568,3.8558,3.8563,3.862,3.8628,3.8594,3.8695,3.8656,3.8665,3.8689,3.8701,3.871,3.8707,3.8553,0,0,0,0,0,3.8425,3.8464,3.8479,3.8539,3.855,3.8554,3.8574,3.8568,3.8589,3.8597,3.8606,3.8626,3.8658,3.868,3.871,3.8778,3.8781,3.881,3.8819,3.8827,3.8834,3.887,3.8883,3.8748,3.8748,3.8748,0,0,3.846,3.8477,3.8502,3.8547,3.8563,3.8602,3.8561,3.8604,3.8632,3.8603,3.8656,3.8663,3.8684,3.8746,3.8774,3.8754,3.8872,3.8834,3.8841,3.8843,3.8877,3.889,3.8901,3.8752,3.8752,3.8751,0,0,3.8546,3.8563,3.8614,3.8631,3.8656,3.8658,3.867,3.8691,3.8695,3.8749,3.8727,3.8759,3.8815,3.8831,3.8846,3.8937,3.8918,3.8947,3.8997,3.9032,3.9043,3.9052,3.9084,3.9096,3.8954,3.8954,3.8954,0,3.8587,3.8647,3.8642,3.8687,3.8706,3.8684,3.8734,3.875,3.8783,3.8796,3.8774,3.8845,3.8857,3.8922,3.8944,3.8957,3.897,3.8945,3.9042,3.9051,3.906,3.909,3.9102,3.8957,3.8957,3.8957,3.8956,0,3.8696,3.8737,3.8775,3.881,3.8834,3.8881,3.8881,3.8906,3.8897,3.8901,3.8954,3.8968,3.9001,3.9016,3.9007,3.908,3.9067,3.9044,3.9004,3.9076,3.9104,3.9116,3.8962,3.8961,3.896,3.8959,0,0,3.8809,3.8841,3.8855,3.887,3.8896,3.8927,3.8972,3.9006,3.9027,3.905,3.9087,3.9135,3.9114,3.9131,3.9124,3.9155,3.9225,3.9127,3.9128,3.9145,3.9305,3.9322,3.9336,3.9213,3.9215,3.9217,3.9303,0,3.8896,3.8978,3.8974,3.905,3.9087,3.9066,3.9105,3.9124,3.9128,3.9158,3.9162,3.9196,3.9166,3.9176,3.9206,3.921,3.9257,3.9204,3.9246,3.9247,3.9242,3.9351,3.9369,3.945,3.9314,3.9316,3.9317,0,3.9008,3.9037,3.9118,3.9138,3.9153,3.9189,3.9219,3.925,3.927,3.927,3.929,3.9277,3.9321,3.9281,3.934,3.9304,3.9321,3.9325,3.9328,3.9332,3.9287,3.9357,3.9476,3.9488,3.9335,3.9333,3.9332,0,3.9083,3.9142,3.9197,3.9211,3.9236,3.9261,3.9272,3.929,3.9311,3.9336,3.9349,3.9379,3.9395,3.9418,3.9413,3.9384,3.9473,3.9432,3.9474,3.9474,3.9493,3.9492,3.9617,3.9504,3.9504,3.9504,3.9503,0,3.918,3.923,3.9231,3.9265,3.932,3.9314,3.9367,3.9375,3.9391,3.9425,3.9407,3.9438,3.943,3.946,3.9456,3.9506,3.9513,3.9514,3.9512,3.9516,3.9516,3.9526,3.952,3.9507,3.9506,3.9506,3.9505,0,3.9273,3.9276,3.9335,3.9354,3.936,3.9399,3.9414,3.9445,3.9448,3.9491,3.95,3.9503,3.9539,3.9536,3.9575,3.9572,3.9633,3.9625,3.9627,3.9625,3.9667,3.9663,3.9802,3.982,3.9696,3.9698,3.9699,0,3.9335,3.9373,3.9397,3.9419,3.9432,3.9468,3.949,3.9484,3.9507,3.9532,3.956,3.9594,3.9621,3.9678,3.9682,3.9712,3.9704,3.975,3.9708,3.971,3.9704,3.9702,3.9706,3.9759,3.976,3.9761,3.9762,0,3.9445,3.9444,3.9477,3.951,3.9537,3.9562,3.9585,3.9603,3.96,3.9626,3.9663,3.9684,3.9724,3.9757,3.9786,3.9794,3.9778,3.9776,3.9787,3.9791,3.9791,3.9791,3.965,3.9773,3.9772,3.9771,3.977,3.977,3.9524,3.9557,3.9579,3.9615,3.9632,3.9654,3.9685,3.9691,3.9723,3.9757,3.9751,3.9792,3.981,3.9846,3.9858,3.9888,3.9871,3.9887,3.9891,3.9895,3.99,3.9786,3.9893,3.9893,3.9893,3.9892,3.9892,0,3.9633,3.9646,3.968,3.9713,3.9742,3.9725,3.975,3.9774,3.9811,3.983,3.9857,3.9899,3.9931,3.9938,3.9969,3.9992,3.9985,4.0,3.9998,4.0,3.9914,3.9901,4.0005,4.0005,4.0005,4.0005,4.0005,4.0005,3.9693,3.9747,3.975,3.9812,3.9823,3.9865,3.9881,3.99,3.9915,3.9963,3.9991,3.9996,4.001,4.0041,4.0069,4.007,4.0082,4.0101,4.0099,4.0018,4.0006,3.9996,3.9984,4.0103,4.0103,4.0182,4.0183,4.0184]}]]